| time (UTC) | temp F | wind direction | speed MPH | gust MPH | rain 1hr in | rain 24hr in | rain mn in | humidity % | barometer mb |
| 20260905112620 | 78 | 138 | 0.0 | 0.0 | 0.00 | 0.00 | 0.00 | 97 | 1009.8 |
| 20260905111202 | 78 | 138 | 0.0 | 0.0 | 0.00 | 0.00 | 0.00 | 97 | 1009.8 |
| 20260905105619 | 78 | 138 | 0.0 | 0.0 | 0.00 | 0.00 | 0.00 | 96 | 1009.8 |
| 20260905104123 | 79 | 138 | 0.0 | 0.0 | 0.00 | 0.00 | 0.00 | 96 | 1009.7 |
| 20260905102622 | 79 | 138 | 0.0 | 0.0 | 0.00 | 0.00 | 0.00 | 96 | 1009.6 |
| 20260905101123 | 80 | 138 | 0.0 | 0.0 | 0.00 | 0.00 | 0.00 | 95 | 1009.6 |
| 20260905095625 | 80 | 138 | 0.0 | 0.0 | 0.00 | 0.00 | 0.00 | 96 | 1009.7 |
| 20260905094121 | 80 | 138 | 0.0 | 1.0 | 0.00 | 0.00 | 0.00 | 96 | 1009.5 |
| 20260905092644 | 80 | 138 | 0.0 | 2.0 | 0.00 | 0.00 | 0.00 | 95 | 1009.7 |
| 20260905091138 | 80 | 138 | 0.0 | 0.0 | 0.00 | 0.00 | 0.00 | 95 | 1009.7 |
| 20260905085637 | 80 | 138 | 0.0 | 0.0 | 0.00 | 0.00 | 0.00 | 95 | 1009.7 |
| 20260905084133 | 80 | 138 | 0.0 | 0.0 | 0.00 | 0.00 | 0.00 | 95 | 1009.8 |
| 20260905082621 | 80 | 138 | 0.0 | 0.0 | 0.00 | 0.00 | 0.00 | 95 | 1010.0 |
| 20260905081121 | 80 | 138 | 0.0 | 0.0 | 0.00 | 0.00 | 0.00 | 95 | 1010.1 |
| 20260905075643 | 80 | 138 | 0.0 | 1.0 | 0.00 | 0.00 | 0.00 | 94 | 1010.3 |
| 20260905074136 | 81 | 138 | 1.0 | 2.0 | 0.00 | 0.00 | 0.00 | 94 | 1010.2 |
| 20260905072629 | 81 | 138 | 0.0 | 1.0 | 0.00 | 0.00 | 0.00 | 94 | 1010.3 |
| 20260905071118 | 81 | 138 | 0.0 | 3.0 | 0.00 | 0.00 | 0.00 | 94 | 1010.4 |
| 20260905065642 | 81 | 138 | 0.0 | 0.0 | 0.00 | 0.00 | 0.00 | 93 | 1010.5 |
| 20260905064136 | 81 | 134 | 0.0 | 3.0 | 0.00 | 0.00 | 0.00 | 93 | 1010.7 |
| 20260905062634 | 82 | 141 | 2.0 | 4.0 | 0.00 | 0.00 | 0.00 | 93 | 1010.8 |
| 20260905061142 | 82 | 143 | 0.0 | 0.0 | 0.00 | 0.00 | 0.00 | 93 | 1010.8 |
| 20260905055625 | 82 | 114 | 0.0 | 0.0 | 0.00 | 0.00 | 0.00 | 92 | 1010.8 |
| 20260905054124 | 82 | 113 | 0.0 | 0.0 | 0.00 | 0.00 | 0.00 | 92 | 1010.9 |
| 20260905052646 | 83 | 113 | 1.0 | 7.0 | 0.00 | 0.00 | 0.00 | 92 | 1010.8 |
| 20260905051124 | 83 | 145 | 1.0 | 7.0 | 0.00 | 0.00 | 0.00 | 92 | 1010.9 |
| 20260905045621 | 83 | 126 | 2.0 | 7.0 | 0.00 | 0.00 | 0.00 | 91 | 1010.6 |
| 20260905044142 | 83 | 127 | 2.0 | 8.0 | 0.00 | 0.00 | 0.00 | 91 | 1010.7 |
| 20260905042623 | 83 | 127 | 3.0 | 8.0 | 0.00 | 0.00 | 0.00 | 91 | 1010.8 |
| 20260905041121 | 83 | 127 | 3.0 | 8.0 | 0.00 | 0.00 | 0.00 | 91 | 1010.9 |
| 20260905035624 | 84 | 134 | 3.0 | 4.0 | 0.00 | 0.00 | 0.00 | 90 | 1011.0 |
| 20260905034122 | 84 | 121 | 1.0 | 6.0 | 0.00 | 0.00 | 0.00 | 91 | 1010.9 |
| 20260905032624 | 84 | 121 | 2.0 | 6.0 | 0.00 | 0.00 | 0.00 | 91 | 1010.8 |
| 20260905031118 | 84 | 130 | 1.0 | 4.0 | 0.00 | 0.00 | 0.00 | 90 | 1010.9 |
| 20260905025642 | 84 | 121 | 3.0 | 8.0 | 0.00 | 0.00 | 0.00 | 90 | 1010.9 |
| 20260905024135 | 84 | 121 | 3.0 | 7.0 | 0.00 | 0.00 | 0.00 | 89 | 1010.5 |
| 20260905021134 | 85 | 63 | 4.0 | 11.0 | 0.00 | 0.00 | 0.00 | 87 | 1010.2 |
| 20260905015618 | 86 | 121 | 5.0 | 11.0 | 0.00 | 0.00 | 0.00 | 86 | 1010.0 |
| 20260905014139 | 86 | 144 | 5.0 | 10.0 | 0.00 | 0.00 | 0.00 | 85 | 1009.8 |
| 20260905012634 | 86 | 101 | 4.0 | 14.0 | 0.00 | 0.00 | 0.00 | 84 | 1009.8 |
| 20260905011134 | 86 | 119 | 4.0 | 10.0 | 0.00 | 0.00 | 0.00 | 83 | 1009.7 |
| 20260905005636 | 87 | 147 | 7.0 | 13.0 | 0.00 | 0.00 | 0.00 | 82 | 1009.5 |
| 20260905004134 | 87 | 109 | 4.0 | 10.0 | 0.00 | 0.00 | 0.00 | 81 | 1009.5 |
| 20260905002634 | 88 | 98 | 10.0 | 16.0 | 0.00 | 0.00 | 0.00 | 80 | 1009.4 |
| 20260905001141 | 88 | 111 | 9.0 | 17.0 | 0.00 | 0.00 | 0.00 | 78 | 1009.2 |
| 20260904235621 | 89 | 107 | 7.0 | 15.0 | 0.00 | 0.00 | 0.00 | 77 | 1009.1 |
| 20260904234121 | 89 | 105 | 9.0 | 17.0 | 0.00 | 0.00 | 0.00 | 78 | 1009.0 |
| 20260904232624 | 90 | 113 | 8.0 | 16.0 | 0.00 | 0.00 | 0.00 | 76 | 1009.0 |
| 20260904231125 | 90 | 115 | 9.0 | 20.0 | 0.00 | 0.00 | 0.00 | 75 | 1009.0 |
| 20260904225626 | 91 | 134 | 11.0 | 18.0 | 0.00 | 0.00 | 0.00 | 73 | 1009.0 |
| 20260904224143 | 92 | 140 | 5.0 | 19.0 | 0.00 | 0.00 | 0.00 | 74 | 1008.9 |
| 20260904222641 | 91 | 100 | 9.0 | 18.0 | 0.00 | 0.00 | 0.00 | 73 | 1008.9 |
| 20260904221131 | 92 | 113 | 7.0 | 18.0 | 0.00 | 0.00 | 0.00 | 72 | 1008.7 |
| 20260904215624 | 92 | 61 | 6.0 | 17.0 | 0.00 | 0.00 | 0.00 | 73 | 1008.7 |
| 20260904214121 | 93 | 69 | 8.0 | 18.0 | 0.00 | 0.00 | 0.00 | 72 | 1008.6 |
| 20260904212624 | 94 | 46 | 7.0 | 16.0 | 0.00 | 0.00 | 0.00 | 71 | 1008.7 |
| 20260904211142 | 93 | 82 | 7.0 | 17.0 | 0.00 | 0.00 | 0.00 | 72 | 1008.7 |
| 20260904205623 | 94 | 121 | 9.0 | 18.0 | 0.00 | 0.00 | 0.00 | 69 | 1008.9 |
| 20260904204123 | 95 | 95 | 7.0 | 15.0 | 0.00 | 0.00 | 0.00 | 68 | 1008.7 |
| 20260904202643 | 95 | 80 | 7.0 | 16.0 | 0.00 | 0.00 | 0.00 | 66 | 1008.9 |
| 20260904201155 | 96 | 124 | 9.0 | 18.0 | 0.00 | 0.00 | 0.00 | 65 | 1008.9 |
| 20260904195620 | 95 | 96 | 8.0 | 18.0 | 0.00 | 0.00 | 0.00 | 67 | 1008.8 |
| 20260904194118 | 96 | 103 | 8.0 | 17.0 | 0.00 | 0.00 | 0.00 | 64 | 1009.1 |
| 20260904192620 | 96 | 160 | 8.0 | 16.0 | 0.00 | 0.00 | 0.00 | 63 | 1009.1 |
| 20260904191138 | 96 | 39 | 10.0 | 16.0 | 0.00 | 0.00 | 0.00 | 63 | 1009.4 |
| 20260904185635 | 96 | 143 | 6.0 | 15.0 | 0.00 | 0.00 | 0.00 | 62 | 1009.4 |
| 20260904184127 | 96 | 146 | 6.0 | 15.0 | 0.00 | 0.00 | 0.00 | 64 | 1009.5 |
| 20260904182628 | 96 | 150 | 8.0 | 14.0 | 0.00 | 0.00 | 0.00 | 62 | 1009.7 |
| 20260904181125 | 95 | 118 | 6.0 | 14.0 | 0.00 | 0.00 | 0.00 | 63 | 1010.0 |
| 20260904175622 | 94 | 133 | 9.0 | 14.0 | 0.00 | 0.00 | 0.00 | 65 | 1010.0 |
| 20260904174116 | 95 | 136 | 7.0 | 12.0 | 0.00 | 0.00 | 0.00 | 64 | 1010.3 |
| 20260904172635 | 95 | 153 | 5.0 | 10.0 | 0.00 | 0.00 | 0.00 | 64 | 1010.6 |
| 20260904171129 | 95 | 165 | 5.0 | 12.0 | 0.00 | 0.00 | 0.00 | 63 | 1010.6 |
| 20260904165629 | 94 | 134 | 8.0 | 15.0 | 0.00 | 0.00 | 0.00 | 65 | 1010.6 |
| 20260904164127 | 94 | 160 | 8.0 | 15.0 | 0.00 | 0.00 | 0.00 | 65 | 1010.9 |
| 20260904162648 | 93 | 156 | 7.0 | 17.0 | 0.00 | 0.00 | 0.00 | 67 | 1010.9 |
| 20260904161123 | 92 | 177 | 9.0 | 15.0 | 0.00 | 0.00 | 0.00 | 69 | 1010.9 |
| 20260904155623 | 92 | 169 | 7.0 | 12.0 | 0.00 | 0.00 | 0.00 | 71 | 1010.9 |
| 20260904154141 | 91 | 161 | 5.0 | 18.0 | 0.00 | 0.00 | 0.00 | 73 | 1010.9 |
| 20260904152620 | 90 | 127 | 7.0 | 12.0 | 0.00 | 0.00 | 0.00 | 75 | 1011.1 |
| 20260904151117 | 88 | 153 | 6.0 | 14.0 | 0.00 | 0.00 | 0.00 | 77 | 1011.1 |
| 20260904145635 | 87 | 123 | 8.0 | 15.0 | 0.00 | 0.00 | 0.00 | 80 | 1010.9 |
| 20260904144147 | 87 | 136 | 6.0 | 13.0 | 0.00 | 0.00 | 0.00 | 83 | 1011.0 |
| 20260904142622 | 87 | 171 | 7.0 | 10.0 | 0.00 | 0.00 | 0.00 | 83 | 1010.9 |
| 20260904141141 | 86 | 143 | 5.0 | 10.0 | 0.00 | 0.00 | 0.00 | 85 | 1010.8 |
| 20260904135633 | 84 | 126 | 4.0 | 9.0 | 0.00 | 0.00 | 0.00 | 88 | 1010.8 |
| 20260904134142 | 83 | 138 | 3.0 | 8.0 | 0.00 | 0.00 | 0.00 | 90 | 1010.8 |
| 20260904132636 | 82 | 126 | 3.0 | 8.0 | 0.00 | 0.00 | 0.00 | 93 | 1010.6 |